[[{"header":{"parameterUnit":"m.s-1","parameterCategory":1,"la1":30.2991,"la2":30.254,"lo1":-89.0895,"lo2":-89.0444,"dy":0.0017,"dx":0.0017,"nx":28,"ny":28,"refTime":"2024-08-01T21:00:00:Z","depth":0,"parameterNumber":2,"parameterNumberName":"U-component_of_WINDS"},"data":[0,0,0,0,0,0,0,0,0,0,0,0,0,0,0,0,0,0,0,0,0,0,0,0,0,0,0,0,0,0,0,0,0,0,0,0,0,0,0,0,0,0,0,0,0,0,0,0,0,0,0,0,0,0,0,0,0,0,4.668,4.6682,0,4.6818,4.682,4.6821,4.6745,4.6741,4.6738,4.6734,4.688,4.6887,4.6895,0,0,0,0,0,0,0,0,0,0,0,0,0,4.6355,4.6361,4.668,4.6682,4.6683,4.6818,4.682,4.6822,4.6746,4.6741,4.6737,4.6732,4.6878,4.6886,4.6895,0,0,0,0,0,0,0,0,0,0,0,0,0,4.6495,4.6363,4.668,4.6662,4.6661,4.6817,4.682,4.6822,4.6747,4.6741,4.6735,4.673,4.6875,4.6886,4.6897,4.708,0,0,4.6931,4.6936,0,0,0,0,0,0,0,0,4.6487,4.6507,4.6663,4.6663,4.6663,4.6758,4.6759,4.6909,4.6748,4.6715,4.6734,4.6727,4.6845,4.6858,4.6896,4.7087,4.7093,4.6932,4.6938,4.6943,4.6946,0,0,0,0,0,0,0,4.6478,4.6501,4.6735,4.6665,4.6665,4.6648,4.6662,4.6787,4.681,4.6717,4.6712,4.6729,4.6844,4.6886,4.6899,4.7095,4.6931,4.6941,4.6948,4.6953,4.7442,4.7448,0,0,0,0,0,0,4.6468,4.6493,4.673,4.6739,4.6559,4.6659,4.6674,4.6734,4.6808,4.6814,4.6734,4.6725,4.687,4.6886,4.6904,4.7123,4.6943,4.6954,4.696,4.7436,4.7444,4.745,0,0,0,0,0,0,4.6462,4.649,4.6725,4.6615,4.6643,4.667,4.6738,4.6739,4.6781,4.6821,4.6825,4.6772,4.6866,4.6888,4.7036,4.7127,4.6959,4.6969,4.7429,4.7438,4.7447,4.7563,0,0,0,0,0,0,4.6453,4.6488,4.6557,4.6617,4.6649,4.6854,4.6744,4.6746,4.68,4.679,4.6858,4.6864,4.6863,4.702,4.7047,4.714,4.6978,4.742,4.7433,4.7444,4.7551,4.7576,4.7596,0,0,0,0,0,4.6441,4.6586,4.6561,4.659,4.6736,4.6859,4.6878,4.6872,4.6808,4.6878,4.6903,4.6862,4.7113,4.7036,4.7066,4.7163,4.7415,4.7429,4.7443,4.7541,4.7571,4.7596,0,0,0,0,0,0,4.6538,4.6593,4.6567,4.6734,4.6792,4.6846,4.6934,4.6904,4.6983,4.697,4.6961,4.6977,4.7131,4.7162,4.7075,4.7344,4.7254,4.7275,4.7318,4.7347,4.7369,4.7358,4.6987,0,0,0,0,0,4.6578,4.6672,4.6716,4.686,4.689,4.6907,4.6961,4.6951,4.7012,4.7037,4.7073,4.7135,4.7227,4.7289,4.7376,4.7555,4.7569,4.7637,4.7659,4.7677,4.7696,4.7793,4.7824,4.7497,4.7497,4.7497,0,0,4.6664,4.6705,4.6766,4.688,4.6924,4.7023,4.6929,4.7037,4.7111,4.7054,4.7195,4.7224,4.7292,4.7457,4.7531,4.7487,4.7789,4.7696,4.771,4.7719,4.7811,4.7842,4.7869,4.7507,4.7505,4.7503,0,0,4.6869,4.691,4.7034,4.708,4.7147,4.7157,4.7187,4.7246,4.7262,4.7403,4.7362,4.745,4.761,4.766,4.7707,4.7931,4.7896,4.796,4.8077,4.8172,4.8198,4.8221,4.8301,4.833,4.7978,4.7979,4.7979,0,4.6967,4.7113,4.7102,4.7214,4.7266,4.7217,4.7343,4.7388,4.7481,4.7519,4.7468,4.7667,4.771,4.7885,4.7939,4.7979,4.8013,4.7953,4.8195,4.8218,4.8239,4.8315,4.8345,4.7986,4.7985,4.7984,4.7984,0,4.723,4.7332,4.7425,4.7514,4.7576,4.7695,4.7703,4.7768,4.7753,4.7769,4.7914,4.7963,4.8059,4.81,4.8087,4.8274,4.8245,4.8195,4.8104,4.8277,4.8349,4.8378,4.7996,4.7994,4.7991,4.799,0,0,4.7502,4.7582,4.7617,4.7656,4.7726,4.7806,4.7922,4.8015,4.8071,4.8137,4.8235,4.8371,4.8324,4.8377,4.837,4.8453,4.8628,4.8393,4.8394,4.8435,4.8837,4.8874,4.8909,4.8605,4.861,4.8615,4.8831,0,4.7712,4.7914,4.7908,4.8096,4.8191,4.8145,4.8247,4.8302,4.832,4.8403,4.8424,4.852,4.8452,4.8484,4.8564,4.859,4.8709,4.8574,4.8697,4.8702,4.8682,4.8946,4.8986,4.9188,4.8859,4.8864,4.8868,0,4.7985,4.8058,4.8256,4.8311,4.8351,4.8442,4.8526,4.8607,4.8668,4.8675,4.8734,4.8713,4.8833,4.8738,4.8903,4.8812,4.8862,4.8882,4.889,4.8901,4.8795,4.8965,4.9252,4.9283,4.8912,4.8908,4.8905,0,4.8164,4.8312,4.8449,4.8484,4.8553,4.8618,4.865,4.8705,4.8761,4.8835,4.8872,4.896,4.9008,4.9077,4.9081,4.9011,4.9247,4.9153,4.9258,4.9258,4.931,4.9307,4.961,4.9342,4.9342,4.9341,4.934,0,4.84,4.8523,4.853,4.8614,4.8751,4.8742,4.8878,4.8904,4.8954,4.9043,4.901,4.9095,4.9094,4.9182,4.9186,4.9322,4.9344,4.9354,4.9354,4.9357,4.9356,4.939,4.9377,4.9349,4.9347,4.9346,4.9344,0,4.8622,4.8632,4.8779,4.8831,4.8847,4.8945,4.899,4.9071,4.9086,4.92,4.9226,4.925,4.9351,4.9361,4.9479,4.9481,4.9646,4.963,4.9624,4.9622,4.9726,4.9716,5.0062,5.0107,4.981,4.9813,4.9815,0,4.8773,4.8866,4.8927,4.8984,4.9019,4.9111,4.9167,4.9163,4.9223,4.93,4.9372,4.9469,4.9546,4.971,4.9739,4.9828,4.9815,4.993,4.9829,4.9829,4.9817,4.9812,4.9821,4.995,4.9953,4.9956,4.9958,0,4.9038,4.9038,4.912,4.9204,4.9271,4.9338,4.9399,4.9448,4.9451,4.9521,4.9623,4.9683,4.9802,4.9899,4.9987,5.0021,4.9991,4.9989,5.0018,5.0023,5.0016,5.0022,4.9678,4.9982,4.9979,4.9978,4.9976,4.9975,4.923,4.931,4.9366,4.9458,4.9503,4.9562,4.964,4.9664,4.9748,4.9843,4.9836,4.9948,5.0008,5.0122,5.0163,5.0252,5.0214,5.0256,5.0266,5.0277,5.0287,5.0002,5.0268,5.0267,5.0267,5.0266,5.0266,0,4.9494,4.9527,4.9612,4.9698,4.9771,4.9734,4.98,4.9864,4.9963,5.002,5.0096,5.0213,5.0307,5.0342,5.0434,5.0498,5.0487,5.0523,5.0518,5.0527,5.0316,5.0282,5.053,5.053,5.053,5.053,5.053,5.053,4.964,4.9774,4.9781,4.9937,4.997,5.0078,5.0119,5.0173,5.0218,5.035,5.0427,5.0448,5.0497,5.0592,5.0677,5.0685,5.0721,5.0763,5.0765,5.0568,5.0541,5.0516,5.0484,5.077,5.0771,5.0968,5.0969,5.0971]},{"header":{"parameterUnit":"m.s-1","parameterCategory":1,"la1":30.2991,"la2":30.254,"lo1":-89.0895,"lo2":-89.0444,"dy":0.0017,"dx":0.0017,"nx":28,"ny":28,"refTime":"2024-08-01T21:00:00:Z","depth":0,"parameterNumber":3,"parameterNumberName":"V-component_of_WINDS"},"data":[0,0,0,0,0,0,0,0,0,0,0,0,0,0,0,0,0,0,0,0,0,0,0,0,0,0,0,0,0,0,0,0,0,0,0,0,0,0,0,0,0,0,0,0,0,0,0,0,0,0,0,0,0,0,0,0,0,0,-0.0658,-0.0658,0,-0.0668,-0.0668,-0.0668,-0.0667,-0.0667,-0.0667,-0.0667,-0.0677,-0.0678,-0.0678,0,0,0,0,0,0,0,0,0,0,0,0,0,-0.0641,-0.0641,-0.0658,-0.0658,-0.0659,-0.0668,-0.0668,-0.0668,-0.0667,-0.0667,-0.0667,-0.0667,-0.0677,-0.0678,-0.0678,0,0,0,0,0,0,0,0,0,0,0,0,0,-0.0649,-0.0642,-0.0658,-0.0659,-0.0659,-0.0668,-0.0668,-0.0668,-0.0667,-0.0667,-0.0667,-0.0666,-0.0677,-0.0678,-0.0678,-0.0687,0,0,-0.068,-0.068,0,0,0,0,0,0,0,0,-0.0649,-0.065,-0.0659,-0.0659,-0.0659,-0.0666,-0.0666,-0.0674,-0.0667,-0.0664,-0.0667,-0.0666,-0.0674,-0.0675,-0.0677,-0.0687,-0.0688,-0.068,-0.0681,-0.0681,-0.0681,0,0,0,0,0,0,0,-0.0648,-0.065,-0.0662,-0.0659,-0.0659,-0.066,-0.0661,-0.0667,-0.067,-0.0664,-0.0664,-0.0665,-0.0674,-0.0676,-0.0677,-0.0688,-0.068,-0.0681,-0.0681,-0.0681,-0.0706,-0.0706,0,0,0,0,0,0,-0.0647,-0.0649,-0.0662,-0.0662,-0.0653,-0.066,-0.0661,-0.0664,-0.067,-0.0671,-0.0666,-0.0665,-0.0675,-0.0676,-0.0678,-0.0688,-0.0681,-0.0681,-0.0682,-0.0705,-0.0706,-0.0706,0,0,0,0,0,0,-0.0647,-0.0648,-0.0661,-0.0656,-0.0657,-0.0661,-0.0664,-0.0664,-0.0667,-0.0671,-0.0672,-0.0667,-0.0675,-0.0677,-0.0684,-0.0688,-0.0682,-0.0682,-0.0705,-0.0706,-0.0706,-0.0708,0,0,0,0,0,0,-0.0647,-0.0648,-0.0651,-0.0656,-0.0658,-0.0668,-0.0664,-0.0665,-0.0668,-0.0668,-0.0673,-0.0674,-0.0675,-0.0683,-0.0685,-0.0689,-0.0683,-0.0705,-0.0705,-0.0706,-0.0708,-0.0709,-0.071,0,0,0,0,0,-0.0646,-0.0652,-0.0651,-0.0653,-0.0661,-0.0668,-0.0669,-0.067,-0.0668,-0.0671,-0.0674,-0.0673,-0.0688,-0.0684,-0.0686,-0.069,-0.0705,-0.0705,-0.0706,-0.0708,-0.0709,-0.071,0,0,0,0,0,0,-0.0648,-0.0652,-0.0652,-0.0659,-0.0663,-0.0668,-0.0671,-0.0671,-0.0676,-0.0676,-0.0678,-0.0679,-0.0687,-0.0689,-0.0685,-0.0699,-0.0696,-0.0697,-0.0697,-0.0698,-0.0699,-0.0698,-0.0683,0,0,0,0,0,-0.0649,-0.0653,-0.0657,-0.0664,-0.0665,-0.0668,-0.0671,-0.0672,-0.0676,-0.0678,-0.0681,-0.0686,-0.0691,-0.0695,-0.07,-0.0709,-0.071,-0.0712,-0.0713,-0.0714,-0.0715,-0.072,-0.0721,-0.0708,-0.0708,-0.0708,0,0,-0.0652,-0.0655,-0.0657,-0.0664,-0.0667,-0.0672,-0.067,-0.0675,-0.0679,-0.0679,-0.0686,-0.0689,-0.0694,-0.0702,-0.0706,-0.0705,-0.0719,-0.0715,-0.0715,-0.0716,-0.0721,-0.0722,-0.0723,-0.0708,-0.0708,-0.0708,0,0,-0.0659,-0.0662,-0.0667,-0.067,-0.0675,-0.0677,-0.0678,-0.0683,-0.0684,-0.0692,-0.0692,-0.0697,-0.0706,-0.071,-0.0713,-0.0722,-0.0722,-0.0724,-0.0728,-0.0733,-0.0734,-0.0735,-0.0739,-0.074,-0.0725,-0.0725,-0.0725,0,-0.0662,-0.0669,-0.067,-0.0675,-0.0678,-0.0678,-0.0684,-0.0687,-0.0694,-0.0696,-0.0694,-0.0706,-0.071,-0.0719,-0.0722,-0.0724,-0.0726,-0.0723,-0.0734,-0.0735,-0.0736,-0.0739,-0.0741,-0.0725,-0.0725,-0.0725,-0.0725,0,-0.0672,-0.0677,-0.0681,-0.0687,-0.069,-0.0696,-0.0699,-0.0702,-0.0703,-0.0705,-0.0713,-0.0717,-0.0723,-0.0726,-0.0727,-0.0736,-0.0735,-0.0733,-0.073,-0.0737,-0.074,-0.0742,-0.0725,-0.0725,-0.0725,-0.0725,0,0,-0.068,-0.0687,-0.0688,-0.0691,-0.0696,-0.07,-0.0706,-0.0712,-0.0715,-0.072,-0.0725,-0.0734,-0.0733,-0.0736,-0.0738,-0.0742,-0.075,-0.074,-0.0741,-0.0742,-0.076,-0.0761,-0.0762,-0.075,-0.075,-0.075,-0.076,0,-0.0688,-0.0698,-0.0699,-0.0708,-0.0713,-0.0714,-0.0719,-0.0723,-0.0726,-0.0731,-0.0734,-0.0739,-0.0738,-0.074,-0.0744,-0.0748,-0.0753,-0.0747,-0.0755,-0.0755,-0.0753,-0.0764,-0.0765,-0.0773,-0.0761,-0.0761,-0.0761,0,-0.0698,-0.0703,-0.0712,-0.0717,-0.0719,-0.0724,-0.073,-0.0734,-0.0739,-0.0741,-0.0745,-0.0746,-0.0753,-0.075,-0.076,-0.0755,-0.0759,-0.0761,-0.0761,-0.0762,-0.0759,-0.0765,-0.0776,-0.0777,-0.0763,-0.0763,-0.0763,0,-0.0703,-0.0712,-0.0719,-0.0721,-0.0727,-0.073,-0.0733,-0.0738,-0.0741,-0.0747,-0.0749,-0.0755,-0.0759,-0.0764,-0.0767,-0.0764,-0.0776,-0.0773,-0.0778,-0.0778,-0.078,-0.078,-0.0792,-0.0783,-0.0783,-0.0783,-0.0783,0,-0.0712,-0.0718,-0.0721,-0.0725,-0.0732,-0.0734,-0.0741,-0.0743,-0.0748,-0.0753,-0.0754,-0.0759,-0.0762,-0.0768,-0.077,-0.0778,-0.078,-0.0782,-0.0782,-0.0781,-0.0781,-0.0784,-0.0783,-0.0783,-0.0783,-0.0783,-0.0783,0,-0.0719,-0.0721,-0.0729,-0.0734,-0.0735,-0.074,-0.0744,-0.0749,-0.0751,-0.0758,-0.076,-0.0764,-0.0771,-0.0774,-0.0782,-0.0784,-0.0793,-0.0793,-0.0791,-0.0791,-0.0796,-0.0796,-0.081,-0.0812,-0.0801,-0.0801,-0.0801,0,-0.0724,-0.0728,-0.0734,-0.0737,-0.074,-0.0745,-0.0749,-0.0751,-0.0755,-0.0761,-0.0765,-0.0772,-0.0777,-0.0788,-0.0792,-0.0799,-0.0799,-0.0804,-0.08,-0.08,-0.08,-0.0799,-0.08,-0.0805,-0.0805,-0.0805,-0.0805,0,-0.0733,-0.0734,-0.0739,-0.0744,-0.0749,-0.0753,-0.0758,-0.076,-0.0764,-0.0768,-0.0775,-0.0779,-0.0788,-0.0794,-0.0802,-0.0805,-0.0806,-0.0806,-0.0808,-0.0807,-0.0806,-0.0807,-0.0793,-0.0806,-0.0806,-0.0806,-0.0806,-0.0806,-0.0739,-0.0743,-0.0748,-0.0753,-0.0757,-0.0761,-0.0766,-0.0769,-0.0774,-0.0781,-0.0782,-0.079,-0.0795,-0.0805,-0.0808,-0.0815,-0.0814,-0.0816,-0.0816,-0.0817,-0.0817,-0.0805,-0.0816,-0.0816,-0.0816,-0.0816,-0.0816,0,-0.0749,-0.0751,-0.0757,-0.0763,-0.0767,-0.0767,-0.0772,-0.0776,-0.0782,-0.0787,-0.0792,-0.0801,-0.0807,-0.0812,-0.0819,-0.0823,-0.0824,-0.0825,-0.0825,-0.0826,-0.0817,-0.0815,-0.0825,-0.0825,-0.0825,-0.0825,-0.0825,-0.0825,-0.0754,-0.0761,-0.0762,-0.0771,-0.0774,-0.0781,-0.0784,-0.0788,-0.0792,-0.0801,-0.0806,-0.0809,-0.0814,-0.0822,-0.0828,-0.083,-0.0832,-0.0834,-0.0835,-0.0827,-0.0826,-0.0825,-0.0824,-0.0834,-0.0834,-0.0843,-0.0843,-0.0843]}]]